When you browse on this site, cookies collect data to enhance your experience and personalize the content and advertising you see.
Visit our Privacy Policy to learn more. By continuing to use the site, you agree to this use of cookies and data.
  • In Austria
  • List of Countries
  • For 7 days
  • Water Temperature
  • Satellite Maps
  • Weather Map
  • News
  • Weather Widgets
  • user-avatar
    Login

    Hourly Weather Satif

    Today, 24 March, Sunday

    Time Temperature Precipitation Wind Pressure Humidity
    00:00 +5°C° 0 mm 0 mps 674 mmHg 96%
    01:00 +6°C° 0 mm 1 mps 674 mmHg 96%
    02:00 +6°C° 0 mm 1 mps 674 mmHg 95%
    03:00 +6°C° 0 mm 1 mps 674 mmHg 94%
    04:00 +5°C° 0 mm 1 mps 674 mmHg 94%
    05:00 +5°C° 0 mm 1 mps 674 mmHg 93%
    06:00 +5°C° 0 mm 1 mps 674 mmHg 92%
    07:00 +8°C° 0 mm 1 mps 674 mmHg 83%
    08:00 +10°C° 0 mm 1 mps 675 mmHg 73%
    09:00 +12°C° 0 mm 1 mps 676 mmHg 64%
    10:00 +13°C° 0 mm 1 mps 676 mmHg 58%
    11:00 +14°C° 0 mm 2 mps 676 mmHg 52%
    12:00 +15°C° 0 mm 2 mps 676 mmHg 47%
    13:00 +16°C° 0.2 mm 2 mps 676 mmHg 46%
    14:00 +16°C° 0.2 mm 3 mps 676 mmHg 46%
    15:00 +16°C° 0.2 mm 3 mps 675 mmHg 46%
    16:00 +14°C° 0.3 mm 3 mps 675 mmHg 51%
    17:00 +12°C° 0.3 mm 3 mps 674 mmHg 56%
    18:00 +11°C° 0.3 mm 3 mps 674 mmHg 60%
    19:00 +12°C° 0 mm 2 mps 674 mmHg 61%
    20:00 +10°C° 0 mm 2 mps 674 mmHg 63%
    21:00 +10°C° 0 mm 2 mps 675 mmHg 64%
    22:00 +10°C° 0 mm 2 mps 674 mmHg 64%
    23:00 +9°C° 0 mm 2 mps 674 mmHg 65%

    Tomorrow, 25 March, Monday

    Time Temperature Precipitation Wind Pressure Humidity
    00:00 +9°C° 0 mm 2 mps 674 mmHg 65%
    01:00 +9°C° 0 mm 2 mps 674 mmHg 67%
    02:00 +8°C° 0 mm 2 mps 673 mmHg 68%
    03:00 +8°C° 0 mm 2 mps 673 mmHg 70%
    04:00 +7°C° 0 mm 2 mps 673 mmHg 71%
    05:00 +7°C° 0 mm 2 mps 673 mmHg 73%
    06:00 +7°C° 0 mm 2 mps 673 mmHg 75%
    07:00 +9°C° 0 mm 2 mps 673 mmHg 67%
    08:00 +11°C° 0 mm 3 mps 674 mmHg 59%
    09:00 +13°C° 0 mm 3 mps 675 mmHg 51%
    10:00 +14°C° 0 mm 4 mps 675 mmHg 48%
    11:00 +15°C° 0 mm 5 mps 674 mmHg 45%
    12:00 +15°C° 0 mm 6 mps 674 mmHg 43%
    13:00 +15°C° 0.1 mm 5 mps 674 mmHg 44%
    14:00 +15°C° 0.1 mm 5 mps 673 mmHg 45%
    15:00 +14°C° 0.1 mm 5 mps 672 mmHg 46%
    16:00 +13°C° 0 mm 4 mps 672 mmHg 52%
    17:00 +12°C° 0 mm 3 mps 672 mmHg 58%
    18:00 +12°C° 0 mm 2 mps 671 mmHg 63%
    19:00 +10°C° 0 mm 2 mps 671 mmHg 69%
    20:00 +10°C° 0 mm 1 mps 671 mmHg 75%
    21:00 +8°C° 0 mm 0 mps 671 mmHg 81%
    22:00 +8°C° 0 mm 0 mps 671 mmHg 81%
    23:00 +8°C° 0 mm 0 mps 671 mmHg 81%

    Day after tomorrow, 26 March, Tuesday

    Time Temperature Precipitation Wind Pressure Humidity
    00:00 +7°C° 0 mm 0 mps 670 mmHg 81%
    01:00 +7°C° 0 mm 0 mps 670 mmHg 81%
    02:00 +7°C° 0 mm 0 mps 670 mmHg 81%
    03:00 +8°C° 0 mm 1 mps 670 mmHg 82%
    04:00 +7°C° 0 mm 1 mps 670 mmHg 84%
    05:00 +7°C° 0 mm 1 mps 670 mmHg 86%
    06:00 +7°C° 0 mm 1 mps 670 mmHg 88%
    07:00 +7°C° 0 mm 2 mps 670 mmHg 84%
    08:00 +8°C° 0 mm 2 mps 671 mmHg 81%
    09:00 +10°C° 0 mm 3 mps 672 mmHg 78%
    10:00 +10°C° 0 mm 3 mps 672 mmHg 76%
    11:00 +11°C° 0 mm 3 mps 672 mmHg 74%
    12:00 +11°C° 0 mm 3 mps 673 mmHg 72%
    13:00 +10°C° 0 mm 3 mps 672 mmHg 73%
    14:00 +10°C° 0 mm 4 mps 672 mmHg 75%
    15:00 +8°C° 0 mm 4 mps 672 mmHg 77%
    16:00 +7°C° 0 mm 4 mps 672 mmHg 78%
    17:00 +6°C° 0 mm 4 mps 671 mmHg 80%
    18:00 +5°C° 0 mm 4 mps 671 mmHg 82%
    19:00 +5°C° 0 mm 4 mps 672 mmHg 82%
    20:00 +4°C° 0 mm 3 mps 672 mmHg 83%
    21:00 +3°C° 0 mm 3 mps 672 mmHg 84%
    22:00 +3°C° 0 mm 3 mps 672 mmHg 83%
    23:00 +3°C° 0 mm 3 mps 672 mmHg 82%

    27 March, Wednesday

    Time Temperature Precipitation Wind Pressure Humidity
    00:00 +3°C° 0 mm 3 mps 672 mmHg 81%
    01:00 +4°C° 0.1 mm 2 mps 672 mmHg 82%
    02:00 +4°C° 0.1 mm 2 mps 672 mmHg 83%
    03:00 +4°C° 0.1 mm 2 mps 672 mmHg 84%
    04:00 +4°C° 0.2 mm 2 mps 672 mmHg 85%
    05:00 +4°C° 0.2 mm 2 mps 671 mmHg 87%
    06:00 +4°C° 0.2 mm 2 mps 671 mmHg 89%
    07:00 +4°C° 0.6 mm 2 mps 672 mmHg 88%
    08:00 +4°C° 0.6 mm 2 mps 672 mmHg 86%
    09:00 +5°C° 0.6 mm 2 mps 672 mmHg 85%
    10:00 +5°C° 0.6 mm 2 mps 672 mmHg 84%
    11:00 +5°C° 0.6 mm 2 mps 672 mmHg 82%
    12:00 +5°C° 0.6 mm 2 mps 672 mmHg 81%
    13:00 +5°C° 0.7 mm 2 mps 671 mmHg 81%
    14:00 +6°C° 0.7 mm 2 mps 671 mmHg 81%
    15:00 +7°C° 0.7 mm 1 mps 671 mmHg 81%
    16:00 +6°C° 0.8 mm 1 mps 671 mmHg 83%
    17:00 +6°C° 0.8 mm 1 mps 671 mmHg 85%
    18:00 +6°C° 0.8 mm 1 mps 671 mmHg 88%
    19:00 +5°C° 0.3 mm 2 mps 672 mmHg 88%
    20:00 +5°C° 0.3 mm 2 mps 672 mmHg 89%
    21:00 +5°C° 0.3 mm 2 mps 672 mmHg 90%
    22:00 +5°C° 0.1 mm 2 mps 672 mmHg 91%
    23:00 +5°C° 0.1 mm 2 mps 672 mmHg 92%

    28 March, Thursday

    Time Temperature Precipitation Wind Pressure Humidity
    00:00 +5°C° 0.1 mm 2 mps 672 mmHg 93%
    01:00 +5°C° 0.1 mm 2 mps 672 mmHg 93%
    02:00 +5°C° 0.1 mm 2 mps 672 mmHg 93%
    03:00 +6°C° 0.1 mm 1 mps 672 mmHg 93%
    04:00 +5°C° 0 mm 1 mps 672 mmHg 94%
    05:00 +5°C° 0 mm 1 mps 672 mmHg 95%
    06:00 +4°C° 0 mm 1 mps 672 mmHg 95%
    07:00 +5°C° 0 mm 2 mps 673 mmHg 88%
    08:00 +6°C° 0 mm 2 mps 673 mmHg 80%
    09:00 +7°C° 0 mm 2 mps 674 mmHg 72%
    10:00 +8°C° 0 mm 2 mps 674 mmHg 69%
    11:00 +8°C° 0 mm 2 mps 674 mmHg 66%
    12:00 +9°C° 0 mm 3 mps 674 mmHg 63%
    13:00 +9°C° 0.1 mm 3 mps 674 mmHg 63%
    14:00 +9°C° 0.1 mm 3 mps 674 mmHg 64%
    15:00 +10°C° 0.1 mm 3 mps 674 mmHg 64%
    16:00 +9°C° 0.1 mm 3 mps 674 mmHg 69%
    17:00 +8°C° 0.1 mm 3 mps 674 mmHg 75%
    18:00 +7°C° 0.1 mm 3 mps 674 mmHg 80%
    19:00 +6°C° 0 mm 2 mps 674 mmHg 85%
    20:00 +5°C° 0 mm 2 mps 674 mmHg 89%
    21:00 +5°C° 0 mm 1 mps 675 mmHg 94%
    22:00 +5°C° 0 mm 1 mps 675 mmHg 94%
    23:00 +5°C° 0 mm 1 mps 674 mmHg 95%

    29 March, Friday

    Time Temperature Precipitation Wind Pressure Humidity
    00:00 +4°C° 0 mm 1 mps 674 mmHg 96%
    01:00 +4°C° 0 mm 1 mps 674 mmHg 96%
    02:00 +4°C° 0 mm 1 mps 674 mmHg 96%
    03:00 +3°C° 0 mm 1 mps 674 mmHg 95%
    04:00 +4°C° 0 mm 1 mps 674 mmHg 95%
    05:00 +4°C° 0 mm 1 mps 674 mmHg 94%
    06:00 +4°C° 0 mm 1 mps 674 mmHg 93%
    07:00 +6°C° 0 mm 1 mps 675 mmHg 83%
    08:00 +8°C° 0 mm 1 mps 676 mmHg 72%
    09:00 +10°C° 0 mm 1 mps 676 mmHg 62%
    10:00 +10°C° 0 mm 2 mps 676 mmHg 58%
    11:00 +12°C° 0 mm 2 mps 676 mmHg 54%
    12:00 +12°C° 0 mm 3 mps 676 mmHg 49%
    13:00 +12°C° 0.1 mm 3 mps 676 mmHg 50%
    14:00 +13°C° 0.1 mm 2 mps 675 mmHg 51%
    15:00 +13°C° 0.1 mm 2 mps 675 mmHg 52%
    16:00 +12°C° 0 mm 2 mps 675 mmHg 58%
    17:00 +11°C° 0 mm 1 mps 674 mmHg 64%
    18:00 +10°C° 0 mm 1 mps 674 mmHg 70%
    19:00 +9°C° 0 mm 1 mps 674 mmHg 75%
    20:00 +8°C° 0 mm 1 mps 674 mmHg 79%
    21:00 +8°C° 0 mm 1 mps 674 mmHg 83%
    22:00 +8°C° 0 mm 1 mps 674 mmHg 82%
    23:00 +8°C° 0 mm 1 mps 674 mmHg 81%
    Show more